SL-16 DEB, 22416

Orbit data source: Space-Track

SL-16 DEB, 22416 is space debris in LEO originally from a launch on Fri, 25 Dec 1992 UTC launched from the Tyuratam Missile And Space Complex (TTMTR). Debris objects in space refer to the collection of defunct objects orbiting the Earth. Examples of debris include non-operational satellites, rocket bodies, and fragments generated from explosions, collisions, or faulty payload assembly.

Loading next visibility...
Identifier
22416, 1992-093DH
Orbit
LEO
Country
Flag of CISCIS
Related business
Manufacturer
Unknown
Mission
Spacecraft
Bus & Motor
Unknown
Mass
Unknown
Launch date (UTC)
1992-12-25 (33 years ago)
Launch vehicle
Unknown
Launch site
Tyuratam Missile And Space Complex (TTMTR)
Object type
Payload
Rocket body
Debris
Shape & HBR
Unknown shape, 0.1 m
Radar Cross Section
Small (<0.1 m²)

Expand to show TLE details & history
Last TLE update: 1 day ago

TLE from 1 day ago
0 SL-16 DEB
1 22416U 92093DH  25305.61007944  .00000078  00000-0  74151-4 0  9991
2 22416  70.9589 256.4240 0080440 330.2476 208.3293 14.06202437683631
Epoch: 2025-11-01T14:38Z
TLE epoch observation values (Epoch: 2025-11-01T14:38:30.863Z)
Latitude
1.65967°
Longitude
175.08773°
Altitude
926.034 km
Speed
7.363 km/s
True Right ascension
05h 03m 24s
True Declination
1° 38' 60"
Sunlit
Object was in full shadow at epoch
Visualization orbit readout
Latitude
Unknown
Longitude
Unknown
Altitude
Unknown
Speed
Unknown
Apparent Right ascension
Unknown
Apparent Declination
Unknown
Sunlit
N/A
Visualization observer readout
Local Sidereal Time
12:18:15
Azimuth
Unknown
Elevation
Unknown
Doppler factor
Unknown
Orbital elements
Apogee altitude
928.64 km
Perigee altitude
812.027 km
Semi-major axis
7,248.471 km
Eccentricity
0.00804
Inclination
70.9589°
RAAN
256.424°
Arg. of periapsis
330.2476°
True anomaly
207.89573°
Mean anomaly
208.3293°
Eccentric anomaly
208.11213°
Mean motion
3.51701 °/min
Orbital period
102.36 mins
BSTAR
0.000074151
Loading maneuver chart data...
Computing Atmospheric mass density...
Loading historical data...
Loading historical data...
Loading historical data...
Loading historical data...
Loading historical data...
Loading historical data...
Loading historical data...

Documentation

Showing up to 5 results
|